Location: Berkeley
(37.8716°N, 122.2727°W)
Time: 15:50:08
(UTC-07:00)

Envisat - Pass Details

Date: 19 May 2026
Orbit: 761 x 763 km, 98.4° (Epoch: 7 June)

Event Time Altitude Azimuth Distance (km) Brightness Sun altitude
Rises 04:22:30 0° 4° (N) 3,229 7.0 -16.1°
Reaches altitude 10° 04:24:56 10° 357° (N) 2,300 6.0 -15.7°
Maximum altitude 04:29:36 39° 289° (WNW) 1,138 3.6 -15.0°
Enters shadow 04:32:14 22° 236° (SW) 1,605 4.0 -14.6°
